Flag for U.S.A. Weather past 2 weeks in Beaumont, Texas, U.S.A.

Now
78 °F

Passing clouds.


Feels Like: 81 °F
Forecast: 74 / 85 °F
Wind: 6 mph from Southeast

Location: Jefferson County Airport

Current Time: Sep 30, 2014 at 11:53:15 PM

Latest Report: Sep 30, 2014 at 10:53 PM


Visibility: 9 mi

Pressure: 29.81 "Hg

Humidity: 90%

Dew point: 75 °F

Location of BeaumontLocation

Historic Weather in Beaumont — Graph

°F

Beaumont temperature yesterday

Maximum temperature yesterday: 87 °F (at 2:53 PM)
Minimum temperature yesterday: 72 °F (at 5:53 AM)
Average temperature yesterday: 79 °F

Past Weeks' High & Low Weather Summary

 TemperatureHumidityPressure
High90 °F (Sep 20, 2:53 PM)97% (Sep 22, 2:53 AM)30.14 "Hg (Sep 22, 2:53 AM)
Low64 °F (Sep 23, 4:53 AM)39% (Sep 23, 1:53 PM)29.80 "Hg (Sep 30, 4:53 PM)
Average78 °F77%29.98 "Hg
* Reported Sep 15 10:53 PM — Sep 30 10:53 PM, Beaumont, Weather by CustomWeather, © 2014

Note: Actual official high and low records may vary slightly from our data, if they occured in-between our weather recording intervals... More about our weather records

Advertising

Beaumont weather history for previous 24 hours

 ConditionsComfort  
Time TempWeatherWind HumidityBarometerVisibility
10:53 PM
Sep 30
78 °FPassing clouds.6 mph90%29.81 "Hg9 mi
9:53 PM77 °FClear.7 mph94%29.81 "Hg9 mi
8:53 PM77 °FClear.5 mph90%29.81 "Hg10 mi
7:53 PM78 °FSunny.5 mph87%29.80 "Hg10 mi
6:53 PM80 °FSunny.7 mph76%29.80 "Hg10 mi
5:53 PM84 °FSunny.10 mph70%29.80 "Hg10 mi
4:53 PM87 °FSunny.12 mph63%29.80 "Hg10 mi
3:53 PM86 °FScattered clouds.10 mph63%29.80 "Hg10 mi
2:53 PM86 °FScattered clouds.10 mph63%29.81 "Hg10 mi
1:53 PM87 °FScattered clouds.9 mph61%29.83 "Hg10 mi
12:53 PM87 °FScattered clouds.10 mph63%29.85 "Hg10 mi
11:53 AM86 °FBroken clouds.9 mph65%29.87 "Hg10 mi
10:53 AM84 °FBroken clouds.8 mph72%29.88 "Hg10 mi
9:53 AM82 °FBroken clouds.5 mph77%29.89 "Hg9 mi
8:53 AM77 °FFog.3 mph90%29.88 "Hg1 mi
7:53 AM75 °FFog.No wind94%29.88 "Hg6 mi
6:53 AM74 °FPassing clouds.No wind94%29.86 "Hg7 mi
5:53 AM74 °FClear.5 mph94%29.85 "Hg8 mi
4:53 AM74 °FClear.5 mph94%29.85 "Hg9 mi
3:53 AM75 °FClear.5 mph90%29.85 "Hg10 mi
2:53 AM76 °FClear.6 mph88%29.85 "Hg10 mi
1:53 AM76 °FClear.5 mph88%29.85 "Hg10 mi
12:53 AM77 °FClear.5 mph85%29.85 "Hg10 mi
11:53 PM
Sep 29
77 °FPassing clouds.3 mph88%29.87 "Hg10 mi
Weather by CustomWeather, © 2014

See weather overviewHow to use our weather pages